Location: Chavannes
(47.1090°N, 0.2226°W)
Time: 05:09:47
(UTC+00:00)

SME Rocket - Pass Details

Date: 16 October 2021
Orbit: 550 x 2651 km, 99.9° (Epoch: 03 December)

Event Time Altitude Azimuth Distance (km) Brightness Sun altitude
Rises 17:36:36 0° 12° (NNE) 2,745 6.2 -5.0°
Reaches altitude 10° 17:38:33 10° 9° (N) 1,885 5.4 -5.4°
Maximum altitude 17:42:23 63° 289° (WNW) 725 3.8 -6.0°
Drops below altitude 10° 17:47:16 10° 209° (SSW) 2,392 6.6 -6.8°
Sets 17:50:01 0° 206° (SSW) 3,572 7.4 -7.3°
